{"data":{"norad_id":46706,"epoch":"2026-09-20T00:08:15.122976Z","epoch_age_seconds":64589,"freshness":"FRESH","line1":"1 46706U 20073AN  26263.00573059  .00044687  00000+0  11544-2 0  9998","line2":"2 46706  53.0537  42.0346 0002407  15.1942 344.9132 15.38707321327096","mean_motion":15.38707321,"eccentricity":0.0002407,"inclination_deg":53.0537,"raan_deg":42.0346,"arg_perigee_deg":15.1942,"mean_anomaly_deg":344.9132,"bstar":0.0011544,"rev_number":32709,"period_min":93.585048978915,"perigee_km":448.28733244227,"apogee_km":451.57436430448,"semimajor_km":6828.0678483734,"source":"CELESTRAK","updated_at":"2026-09-20T09:00:38.586384Z"}}